Location: Dürnast
(47.7483°N, 9.5116°E)
Time: 22:04:58
(UTC+00:00)

Daily predictions for brighter satellites

Satellite Brightness Start Highest point End
(mag) Time Altitude Azimuth Time Altitude Azimuth Time Altitude Azimuth
Cosmos 1269 Rocket 4.1 15:57:10 10° NNW 16:02:30 85° ENE 16:07:47 10° SSE
Cosmos 1812 4.1 16:06:46 10° SE 16:09:24 19° E 16:12:02 10° NE
USA 276 2.2 16:12:40 10° SW 16:14:56 40° SSE 16:17:13 11° E
YAOGAN 11 4.4 16:10:29 10° NNE 16:14:56 52° E 16:19:23 10° S
CZ-2C R/B 2.6 16:12:15 10° SSE 16:15:44 60° ENE 16:19:18 10° N
Cosmos 2263 Rocket 2.2 16:11:03 10° SSW 16:16:32 66° ESE 16:22:05 10° NNE
Cosmos 1437 Rocket 2.9 16:13:33 10° NNW 16:17:16 72° W 16:21:01 10° S
Cosmos 1844 Rocket 4.3 16:14:22 10° SE 16:17:20 15° E 16:20:18 10° ENE
Nadezhda 4 Rocket 4.4 16:14:45 10° SSE 16:20:26 41° E 16:26:06 10° NNE
CORIOLIS 4.2 16:15:24 10° SSE 16:20:36 57° ENE 16:25:53 10° N
ERS-2 2.4 16:19:20 10° S 16:22:12 55° WSW 16:25:05 10° NNW
USA 307 2.6 16:20:34 10° WNW 16:24:28 88° SSW 16:28:16 10° ESE
Cosmos 2227 Rocket 3.2 16:19:26 10° SW 16:24:49 43° NW 16:30:13 10° NNE
Cosmos 44 4.1 16:22:06 10° NW 16:27:25 61° WSW 16:32:29 10° SSE
Meteor 1-20 Rocket 4.5 16:22:09 10° N 16:27:29 45° ENE 16:32:53 10° SE
Cosmos 1140 Rocket 3.6 16:22:59 10° NNW 16:28:03 51° ENE 16:33:03 10° SE
SAR-Lupe-2 3.8 16:25:53 10° S 16:29:26 74° WSW 16:33:02 10° NNW
YAOGAN 1 4.4 16:29:59 12° NE 16:29:59 12° NE 16:31:00 10° NE
Cosmos 1666 2.4 16:30:58 10° N 16:34:31 81° E 16:38:02 10° S
Cosmos 1603 3.9 16:32:30 10° NNW 16:38:03 50° NE 16:43:32 10° SE
DMSP B5D2-2 4.0 16:33:47 10° NNE 16:39:01 80° ESE 16:44:14 10° S
Cosmos 1076 Rocket 4.2 16:37:27 10° NNW 16:41:46 60° W 16:46:02 10° S
Meteor 1-31 Rocket 2.5 16:38:58 10° SSE 16:42:39 72° ENE 16:46:22 10° N
USA 306 3.6 16:45:31 10° W 16:47:23 24° SW 16:49:10 10° SSE
SL-16 R/B 4.2 16:45:47 10° NW 16:50:48 33° WSW 16:55:46 10° SSW
ATLAS CENTAUR R/B 2.8 16:47:06 10° NW 16:51:17 84° SW 16:59:31 10° SE
Cosmos 1602 3.8 16:49:39 10° NNW 16:53:23 74° W 16:57:06 10° S
SL-8 R/B 4.4 16:50:59 10° WNW 16:55:39 54° SSW 17:00:19 10° SE
RESURS DK-1 3.6 16:52:51 10° N 16:56:02 21° NE 16:56:12 21° NE
USA 305 2.9 16:52:23 10° WNW 16:56:12 67° SW 16:59:58 10° SE
CZ-4B R/B 3.4 16:53:34 10° SSE 16:58:33 62° ENE 17:03:24 10° N
Cosmos 1782 3.3 16:57:32 10° SSE 17:01:08 37° E 17:03:03 22° NE
Cosmos 1812 Rocket 3.5 16:57:13 10° S 17:01:29 63° E 17:05:49 10° NNE
Cosmos 1943 3.3 16:56:24 10° NNW 17:02:03 82° WSW 17:07:42 10° SSE
Helios 1A 3.1 16:58:42 12° NNE 17:02:25 52° E 17:06:27 10° S
ATLAS 2AS CENTAUR R/B 3.0 16:57:36 10° NW 17:04:18 46° NE 17:09:08 18° ESE
SMAP 3.7 17:00:44 10° S 17:05:19 58° W 17:09:56 10° NNW
NOAA 6 4.0 17:01:22 10° SSE 17:06:23 57° ENE 17:11:25 10° N
CZ-4B R/B 4.4 17:05:13 10° S 17:08:44 53° W 17:12:18 10° NNW
Radarsat Rocket 3.9 17:07:10 10° SSE 17:12:54 66° ENE 17:19:00 10° NNW
Cosmos 407 Rocket 3.4 17:08:15 10° NNW 17:13:27 87° ENE 17:18:34 10° SSE
Cosmos 2297 Rocket 4.5 17:10:19 10° WNW 17:13:42 16° NW 17:17:06 10° N
ISS -0.9 17:17:21 10° W 17:19:44 18° SW 17:22:06 10° S
Cosmos 2251 Rocket 3.7 17:15:51 10° NNW 17:21:13 78° WSW 17:26:34 10° SSE
Cosmos 220 Rocket 3.9 17:20:45 10° NNW 17:25:02 58° ENE 17:27:54 19° SE
Cosmos 2056 Rocket 3.9 17:22:17 10° S 17:27:19 42° ESE 17:28:44 35° ENE
COSMOS 2455 4.1 17:23:21 10° SSE 17:27:03 22° ESE 17:27:03 22° ESE
Cosmos 1954 Rocket 4.1 17:22:53 10° NNW 17:28:03 51° ENE 17:31:28 20° SE
Timation 2 Rocket 4.0 17:22:30 10° S 17:28:11 49° ESE 17:30:41 31° NE
Cosmos 1844 4.0 17:22:57 10° S 17:28:26 46° ESE 17:30:24 34° ENE
CZ-4 R/B 4.3 17:26:01 10° SSE 17:30:05 83° ENE 17:34:12 10° NNW
Lacrosse 5 2.1 17:25:28 10° SSW 17:30:21 52° SE 17:31:43 40° E
Cosmos-2242 3.8 17:26:54 10° SSW 17:31:08 51° WNW 17:35:22 10° N
COSMO-SKYMED 1 2.4 17:29:30 26° NNE 17:31:53 71° ESE 17:36:12 10° S
Lacrosse 4 Rocket 2.8 17:29:40 10° NW 17:33:43 40° WSW 17:37:40 10° S
Cosmos 1833 Rocket 4.1 17:30:34 10° N 17:33:48 21° NNE 17:33:48 21° NNE
Cosmos 1553 Rocket 4.0 17:33:21 10° N 17:39:35 54° ENE 17:45:38 10° SSE
APEX 3.6 17:37:09 10° SW 17:39:55 37° WNW 17:39:57 37° NW
Meteor 2-2 Rocket 4.5 17:35:04 10° SSW 17:40:49 74° WNW 17:46:44 10° N
USA 234 3.2 17:37:35 32° ENE 17:40:55 81° SE 17:47:28 10° SW
Cosmos 2221 2.6 17:37:26 10° S 17:41:02 51° SE 17:41:02 51° SE
Cosmos 2344 3.4 17:35:04 10° SW 17:42:38 89° SE 17:47:05 27° NE
Cosmos 1812 4.3 17:40:58 10° SW 17:44:18 32° WNW 17:47:39 10° N
Cosmos 1190 Rocket 4.0 17:40:12 10° NNW 17:45:33 87° WSW 17:50:50 10° SSE
Cosmos 1818 3.6 17:41:03 10° SW 17:46:30 79° NW 17:48:46 37° NNE
Cosmos 2026 Rocket 4.0 17:41:34 10° S 17:47:50 86° W 17:54:15 10° N
USA 276 4.3 17:47:07 10° W 17:48:03 20° W 17:48:03 20° W
Cosmos 1371 Rocket 3.9 17:46:20 10° S 17:51:31 68° ESE 17:52:32 54° NE
NOAA 15 4.5 17:48:55 10° SSE 17:54:10 68° ENE 17:59:26 10° N
Cosmos 1844 Rocket 2.5 17:54:48 10° SSW 18:00:23 90° ENE 18:02:03 48° NNE
Cosmos 2263 Rocket 4.0 17:56:21 10° WSW 18:00:57 26° NW 18:05:03 12° N
Meteor 1-26 Rocket 4.1 17:55:35 10° S 18:01:07 85° E 18:04:18 28° NNE
Cosmos 1766 Rocket 3.6 17:59:52 10° NNW 18:04:15 75° W 18:08:32 10° S
YAOGAN 1 4.0 18:07:02 28° NNW 18:07:02 28° NNW 18:09:06 10° NNW
Cosmos 1092 Rocket 4.3 17:59:21 10° SSW 18:05:25 63° WNW 18:11:32 10° N
Cosmos 1933 4.3 18:02:55 10° SSW 18:06:46 45° WNW 18:07:55 35° NNW
Cosmos 1420 Rocket 3.9 18:02:14 10° SSW 18:07:29 86° WNW 18:08:27 61° NNE
ADEOS 4.0 18:04:52 10° S 18:10:01 62° WSW 18:15:13 10° NNW
Cosmos 2082 Rocket 4.4 18:08:40 10° N 18:09:22 12° N 18:09:22 12° N
Cosmos 1624 Rocket 3.9 18:10:05 10° SSW 18:15:18 82° WNW 18:15:39 76° NNW
Cosmos 1417 Rocket 4.3 18:17:42 10° N 18:24:03 77° E 18:24:07 77° E
SL-08 R/B 4.0 18:25:44 48° NW 18:26:18 51° WNW 18:30:47 10° SW
RESURS DK-1 4.3 18:30:08 10° NW 18:31:56 24° NW 18:31:56 24° NW
BREEZE-M DEB 4.4 18:28:32 10° WSW 18:48:52 80° SSE 18:49:09 79° SE
ATLAS 2AS CENTAUR R/B 3.3 18:48:44 10° NW 18:55:19 51° WSW 18:56:38 45° SSW
COSMOS 2455 4.2 19:07:12 10° SW 19:10:14 31° SW 19:10:14 31° SW
Lacrosse 5 3.8 19:08:35 10° W 19:10:56 26° W 19:10:56 26° W
USA 234 4.1 19:24:56 44° NW 19:24:56 44° NW 19:29:57 10° W
